McAllen, TX

5:05 AM CST on February 21, 2017 (GMT -0600)
McAllen Miller International

Weather History for KMFE - February, 2013

Change the Weather History Date:

Saturday, February 23, 2013

  Actual Average Record
Temperature  
Mean Temperature 69 °F 66 °F  
Max Temperature 79 °F 77 °F 98 °F (1996)
Min Temperature 59 °F 56 °F 33 °F (1964)
Degree Days  
Heating Degree Days 0 3  
Month to date heating degree days 18 94  
Since 1 July heating degree days 287 521  
Cooling Degree Days 4 4  
Month to date cooling degree days 153 74  
Year to date cooling degree days 241 136  
Growing Degree Days 20 (Base 50)    
Moisture  
Dew Point 48 °F    
Average Humidity 53    
Maximum Humidity 73    
Minimum Humidity 32    
Precipitation  
Precipitation 0.00 in 0.03 in 0.51 in (1970)
Month to date precipitation 0.01 0.94  
Year to date precipitation 0.99 1.99  
Sea Level Pressure  
Sea Level Pressure 29.93 in    
Wind  
Wind Speed 10 mph (NNE)    
Max Wind Speed 20 mph    
Max Gust Speed 25 mph    
Visibility 10 miles    
Events      
T = Trace of Precipitation, MM = Missing Value Source: NWS Daily Summary

Daily Weather History Graph

Daily Weather History Graph

Search for Another Location

Airport or City:

Trip Planner

Search our weather history database for the weather conditions in past years. The results will help you decide how hot, cold, wet, or windy it might be!

Date:

Astronomy

Feb. 23, 2013 Rise Set
Actual Time 7:01 AM CST 6:31 PM CST
Civil Twilight 6:38 AM CST 6:54 PM CST
Nautical Twilight 6:11 AM CST 7:21 PM CST
Astronomical Twilight 5:44 AM CST 7:48 PM CST
Moon 4:48 PM CST (2/23) 5:17 AM CST (2/23)
Length of Visible Light 12h 16m
Length of Day
11h 29m
Waxing Gibbous, 95% of the Moon is Illuminated
Feb 23
Waxing Gibbous
Feb 25
Full
Mar 4
Last Quarter
Mar 11
New
Mar 19
First Quarter

Hourly Weather History & Observations

Time (CST) Temp. Dew Point Humidity Pressure Visibility Wind Dir Wind Speed Gust Speed Precip Events Conditions
12:53 AM 64.9 °F 55.9 °F 73% 29.89 in 10.0 mi NNE 15.0 mph 23.0 mph N/A   Overcast
1:53 AM 64.9 °F 54.0 °F 68% 29.89 in 10.0 mi NNE 15.0 mph 23.0 mph N/A   Overcast
2:53 AM 64.9 °F 51.1 °F 61% 29.89 in 10.0 mi NNE 18.4 mph 25.3 mph N/A   Overcast
3:53 AM 64.0 °F 48.9 °F 58% 29.89 in 10.0 mi NE 13.8 mph 20.7 mph N/A   Overcast
4:53 AM 62.1 °F 46.0 °F 56% 29.91 in 10.0 mi NNE 10.4 mph - N/A   Overcast
5:53 AM 61.0 °F 44.1 °F 54% 29.92 in 10.0 mi NNE 12.7 mph - N/A   Overcast
6:29 AM 60.8 °F 44.6 °F 55% 29.93 in 10.0 mi North 10.4 mph 16.1 mph N/A   Mostly Cloudy
6:53 AM 60.1 °F 45.0 °F 57% 29.93 in 10.0 mi North 12.7 mph - N/A   Partly Cloudy
7:53 AM 60.1 °F 44.1 °F 55% 29.96 in 10.0 mi North 6.9 mph - N/A   Scattered Clouds
8:13 AM 60.8 °F 44.6 °F 55% 29.98 in 10.0 mi North 6.9 mph - N/A   Mostly Cloudy
8:53 AM 60.1 °F 44.1 °F 55% 29.99 in 10.0 mi North 8.1 mph - N/A   Overcast
9:53 AM 61.0 °F 45.0 °F 56% 30.01 in 10.0 mi North 8.1 mph - N/A   Overcast
10:53 AM 64.0 °F 44.1 °F 48% 30.03 in 10.0 mi NNW 8.1 mph - N/A   Overcast
11:53 AM 66.0 °F 44.1 °F 45% 30.00 in 10.0 mi NNW 8.1 mph - N/A   Overcast
12:02 PM 68.0 °F 46.4 °F 46% 30.00 in 10.0 mi NNW 9.2 mph - N/A   Mostly Cloudy
12:53 PM 72.0 °F 46.0 °F 40% 29.98 in 10.0 mi NNW 9.2 mph - N/A   Overcast
1:53 PM 75.9 °F 48.9 °F 38% 29.94 in 10.0 mi North 11.5 mph - N/A   Clear
2:53 PM 78.1 °F 50.0 °F 37% 29.90 in 10.0 mi North 6.9 mph 17.3 mph N/A   Clear
3:53 PM 79.0 °F 48.9 °F 35% 29.88 in 10.0 mi North 9.2 mph - N/A   Clear
4:53 PM 79.0 °F 46.9 °F 32% 29.85 in 10.0 mi NNE 10.4 mph - N/A   Clear
5:53 PM 77.0 °F 46.0 °F 33% 29.86 in 10.0 mi NNE 6.9 mph - N/A   Clear
6:53 PM 73.0 °F 46.9 °F 39% 29.88 in 10.0 mi East 4.6 mph - N/A   Clear
7:53 PM 69.1 °F 50.0 °F 51% 29.90 in 10.0 mi East 9.2 mph - N/A   Clear
8:53 PM 66.9 °F 50.0 °F 54% 29.92 in 10.0 mi East 6.9 mph - N/A   Clear
9:53 PM 62.1 °F 50.0 °F 65% 29.94 in 10.0 mi SE 6.9 mph - N/A   Clear
10:53 PM 61.0 °F 50.0 °F 67% 29.94 in 10.0 mi ESE 4.6 mph - N/A   Clear
11:53 PM 60.1 °F 54.0 °F 80% 29.91 in 10.0 mi ESE 9.2 mph - N/A   Clear